GFSNIL_sfc_temp_000.txt.gz
Temp
51 49 49 49 47 44 47 46 47 45 45 46 46 45 46 46 45 45 42 43 43 45
46 46 44 43 44 46 46 47 45 45 44 44 45 44 45 42 43 44 43 42 41 43
45 45 45 45 44 43 44 45 45 45 45 45 45 45 44 43 42 41 41 42 40 41
45 45 44 43 43 43 44 45 46 45 44 44 44 44 43 41 41 40 39 39 39 39
43 43 42 42 42 43 44 46 46 45 44 44 43 43 41 39 40 37 37 38 37 39
42 41 40 41 42 43 45 44 44 44 43 43 42 41 40 38 38 38 38 37 36 36
40 40 39 40 41 43 43 42 42 42 42 41 40 39 39 38 35 33 34 33 33 33
41 41 41 41 41 43 43 42 41 39 39 37 38 40 34 33 31 30 30 31 32 32
43 43 41 41 42 42 41 40 38 37 35 34 38 36 37 35 30 31 30 29 31 32
42 41 41 41 41 39 37 35 34 34 33 32 31 37 37 36 32 30 29 28 28 30
41 39 39 38 37 35 34 33 32 32 31 30 32 35 36 35 30 28 29 29 29 28
39 39 38 36 33 33 31 30 30 30 29 29 29 34 34 33 26 27 27 30 30 30
40 38 36 33 32 31 29 30 29 29 28 30 25 31 32 32 29 25 26 27 29 31
38 36 34 32 31 29 28 26 19 18 21 24 26 26 31 32 28 26 26 27 27 28

GFSNIL_sfc_temp_003.txt.gz
Temp
48 47 47 45 45 42 41 40 42 43 45 45 44 45 46 44 43 43 42 42 42 40
46 46 45 43 41 40 41 43 41 42 44 44 44 44 44 43 42 42 43 42 40 38
46 44 43 41 41 41 41 42 43 44 45 45 44 43 43 42 43 41 41 42 39 38
45 42 41 40 40 41 43 44 44 44 45 43 41 42 41 41 40 39 39 39 39 38
42 41 40 40 41 42 44 45 45 44 44 43 42 41 40 38 39 37 36 37 36 36
39 38 38 41 43 44 45 45 44 44 42 41 40 39 38 37 37 36 36 35 34 34
38 38 38 39 41 40 43 42 42 42 41 40 39 38 38 36 33 31 32 32 32 31
41 41 39 39 40 41 42 43 41 39 38 37 37 38 32 32 32 31 31 31 31 31
42 41 41 40 41 40 40 40 39 37 35 34 37 36 37 35 30 30 30 29 30 30
41 41 40 40 40 39 37 36 35 34 33 32 32 37 37 36 30 29 29 28 28 30
40 39 37 37 36 34 33 33 32 31 31 30 32 35 35 34 29 27 27 28 29 28
38 36 35 34 32 32 31 30 30 30 29 29 28 33 33 31 23 24 25 28 29 29
37 35 33 31 31 31 29 29 29 28 28 28 24 29 32 30 26 25 26 27 29 30
36 34 32 31 30 28 27 26 20 18 20 23 25 24 30 31 28 25 25 26 27 28

GFSNIL_sfc_temp_006.txt.gz
Temp
47 46 47 47 45 41 40 39 40 41 42 41 42 42 43 42 42 42 41 40 39 39
45 46 47 46 41 39 39 41 41 41 41 42 43 44 43 41 40 39 39 38 39 39
45 46 46 42 39 39 39 41 41 42 42 43 43 42 42 41 41 40 40 41 40 39
45 45 43 38 38 39 40 41 42 43 43 42 43 42 40 40 40 39 39 39 38 37
41 40 37 38 39 40 42 43 42 44 43 43 41 40 39 38 38 37 36 36 35 35
38 36 36 37 38 40 41 42 43 43 44 43 41 40 38 36 36 35 34 33 32 33
35 35 35 36 37 39 40 42 42 42 41 39 38 38 37 36 33 32 33 32 32 31
40 39 37 38 38 39 39 40 40 40 38 37 37 38 34 33 32 31 30 31 32 32
42 42 40 40 39 39 39 39 39 36 33 32 36 37 37 36 31 31 31 29 30 30
41 41 40 39 38 37 35 34 33 32 32 31 32 36 36 36 31 30 29 28 28 29
38 36 35 35 34 33 33 32 30 30 30 29 31 34 34 33 29 27 27 28 28 28
35 34 33 32 30 31 30 30 29 30 29 27 28 32 32 31 25 24 24 28 28 28
33 31 29 29 29 30 28 29 29 28 27 27 24 28 31 30 25 24 25 26 29 30
31 30 29 28 28 27 26 26 20 18 20 23 25 24 30 31 27 26 25 26 26 28

GFSNIL_sfc_temp_009.txt.gz
Temp
56 56 55 55 55 54 52 52 51 51 52 52 51 51 51 49 43 42 41 39 38 37
54 53 53 53 52 51 49 51 51 52 51 51 51 50 48 46 42 41 38 38 39 39
53 52 51 49 48 48 49 50 50 50 51 50 50 50 47 47 46 45 45 46 44 45
50 49 48 47 47 48 49 50 49 50 49 47 45 46 47 47 47 46 46 46 45 44
48 47 46 46 47 48 48 49 49 49 46 44 45 48 46 45 45 45 44 44 44 44
46 46 45 45 46 47 47 47 47 45 42 42 44 45 45 44 44 43 43 42 41 41
45 45 45 45 45 46 46 46 43 42 43 41 43 44 44 44 42 42 41 40 40 39
46 46 43 45 46 46 47 46 46 44 43 42 42 43 41 41 40 40 39 40 40 39
45 46 46 45 45 45 44 43 42 41 39 39 40 36 37 37 39 38 38 36 37 37
44 44 43 43 43 42 41 41 40 39 39 38 38 35 35 35 37 37 36 35 35 35
43 41 42 41 40 40 40 39 38 37 37 37 37 33 33 33 35 34 34 34 35 34
41 40 39 38 38 38 38 37 37 36 35 35 35 32 32 32 32 31 31 33 35 34
40 39 38 37 37 37 37 36 35 34 35 32 31 31 30 31 31 29 30 32 33 32
39 38 38 37 37 37 36 33 30 29 30 31 31 30 30 30 29 29 29 30 32 33

GFSNIL_sfc_temp_012.txt.gz
Temp
64 64 62 61 60 59 59 59 59 59 59 58 58 57 55 50 48 43 41 40 39 39
62 60 58 58 58 58 58 59 57 57 56 56 55 54 52 48 46 47 46 44 43 43
59 59 57 56 55 55 56 56 54 54 55 54 51 48 46 47 49 47 46 48 48 50
57 56 56 55 55 55 55 55 55 54 52 48 44 43 44 47 49 49 49 49 50 50
55 56 55 54 53 53 52 54 53 49 46 43 43 47 45 46 48 48 47 47 48 48
55 54 52 52 51 52 50 49 47 46 44 44 46 47 47 47 48 48 48 48 47 46
52 50 51 52 52 52 51 50 49 49 48 48 48 48 48 48 47 46 47 46 45 45
52 52 52 52 52 51 51 51 50 49 48 47 47 46 43 44 44 45 44 44 44 44
52 52 51 50 50 49 49 49 48 47 46 45 46 36 36 37 41 42 43 43 43 44
50 49 49 49 49 48 47 47 45 45 45 43 44 35 34 34 39 40 41 41 41 41
49 48 48 48 47 46 46 45 44 44 43 42 43 35 33 32 37 39 39 40 40 40
48 47 47 46 45 45 45 44 43 42 41 40 40 35 33 32 34 35 36 37 37 35
48 46 46 45 45 45 45 43 42 39 39 36 36 34 32 32 33 29 31 33 35 34
48 46 46 45 45 44 43 40 34 32 34 35 34 34 32 31 29 29 29 31 32 36

GFSNIL_sfc_temp_018.txt.gz
Temp
61 58 56 54 53 51 51 52 53 52 52 48 48 49 48 46 44 42 42 43 43 41
57 56 54 53 52 51 51 54 52 52 49 48 47 48 47 45 44 45 43 44 43 43
57 56 54 53 51 50 50 51 50 50 48 47 47 46 44 43 43 43 43 43 43 43
55 55 54 52 50 49 49 49 49 50 47 46 44 45 44 43 42 43 42 43 43 42
56 55 53 50 49 49 48 49 49 49 49 47 45 44 43 42 42 41 41 42 42 42
54 53 50 49 49 49 49 49 48 48 46 45 45 44 43 43 41 40 40 40 41 41
52 51 49 49 49 49 49 47 46 46 46 45 46 46 44 43 39 38 39 39 39 39
53 52 49 48 48 47 47 47 46 46 45 44 45 42 37 38 36 35 35 36 38 39
53 52 49 47 47 47 45 45 44 43 43 42 46 36 36 34 32 34 34 32 35 37
52 50 48 48 47 46 43 43 41 41 41 40 39 36 36 34 32 32 32 32 33 35
50 49 49 47 46 45 43 41 40 39 39 37 39 38 36 34 30 30 31 32 31 31
49 49 47 46 44 42 41 40 40 40 37 34 34 37 36 32 29 29 29 31 31 31
48 45 41 39 41 42 42 41 37 35 35 36 32 36 36 32 28 25 27 29 31 33
46 42 41 41 43 41 39 36 32 31 31 32 33 32 34 32 27 26 26 27 27 29

GFSNIL_sfc_temp_021.txt.gz
Temp
52 49 48 48 47 46 45 45 46 45 45 46 46 44 43 42 42 41 39 38 38 40
52 50 49 48 46 44 44 49 45 44 44 47 46 44 43 41 39 39 38 39 42 41
50 50 48 45 44 44 44 45 44 44 44 43 43 42 41 39 40 39 38 39 39 38
49 49 46 45 45 45 44 44 45 44 43 43 41 41 40 39 40 39 38 38 38 39
49 48 46 45 45 45 43 44 44 44 42 42 41 40 39 38 37 36 35 35 35 36
48 47 45 44 44 45 44 43 43 42 41 41 40 40 39 38 36 35 36 35 34 34
47 48 45 44 44 45 44 43 42 42 41 41 41 39 38 37 34 33 34 34 33 34
49 48 45 45 45 45 44 43 42 41 40 40 40 38 33 32 30 30 30 31 33 34
47 46 45 43 45 42 43 41 40 39 39 37 40 36 36 33 29 30 30 28 30 31
45 45 44 43 43 42 41 39 38 37 36 35 33 36 36 35 30 28 27 27 28 30
44 43 41 41 40 40 39 38 37 36 33 32 36 37 37 35 28 27 27 28 28 28
41 39 38 37 35 36 38 36 35 33 32 30 30 35 35 31 27 27 27 29 30 30
42 39 39 36 37 37 36 34 32 32 31 33 29 34 35 31 24 21 25 26 28 30
39 38 39 36 35 36 33 30 27 27 28 30 30 29 33 31 26 25 25 24 25 27

GFSNIL_sfc_temp_024.txt.gz
Temp
49 47 47 47 45 43 42 43 44 43 43 43 44 44 42 39 38 38 36 36 36 38
48 48 46 45 43 42 43 46 44 42 42 42 43 41 40 38 37 37 37 36 38 38
48 47 45 43 43 43 43 43 42 43 42 41 41 40 39 37 38 37 36 37 36 35
47 47 44 43 43 43 43 43 43 43 41 40 39 39 37 36 36 35 34 34 34 34
47 46 43 43 43 42 42 43 45 43 41 41 39 38 36 35 35 34 33 33 33 33
47 45 44 42 42 42 42 43 42 42 41 41 39 37 36 35 33 32 32 31 31 31
44 45 43 41 43 43 43 41 43 42 42 40 38 37 35 34 31 30 31 31 31 30
45 44 43 43 43 41 41 42 42 42 41 39 36 37 32 32 31 30 29 30 30 30
43 43 41 41 40 39 40 40 39 39 38 35 38 36 36 34 29 30 29 27 29 29
41 41 40 40 39 40 35 35 36 36 35 32 32 36 37 36 31 29 27 26 27 29
40 39 38 36 37 36 34 34 35 32 31 31 34 35 34 33 27 26 27 27 27 27
39 38 37 37 36 33 32 32 32 32 30 29 29 35 34 29 24 25 25 27 27 28
39 37 36 35 34 33 32 32 31 31 29 32 27 32 33 31 24 19 24 25 27 29
37 36 36 35 35 33 29 29 26 25 26 27 28 26 31 30 25 23 23 23 24 26

GFSNIL_sfc_temp_027.txt.gz
Temp
48 47 46 46 43 42 42 42 43 42 42 42 42 41 40 38 37 36 35 34 34 34
47 46 45 44 43 41 41 44 42 41 41 41 42 40 39 37 36 36 35 34 34 34
46 46 45 43 42 41 41 41 42 41 41 42 42 40 38 36 36 35 34 34 32 32
45 45 44 42 41 41 41 41 43 43 42 41 40 39 37 36 35 34 33 32 32 32
44 44 43 41 41 40 40 43 41 41 41 41 39 39 38 36 35 33 31 31 30 30
43 42 41 41 41 40 41 40 40 40 40 39 40 39 36 35 33 31 31 30 30 30
41 42 41 40 40 40 40 39 38 39 39 40 39 38 35 33 31 31 31 31 30 29
41 41 40 40 40 40 38 39 40 40 38 38 37 36 32 32 32 30 29 30 30 30
41 40 39 38 37 37 40 38 37 36 35 33 37 36 37 35 29 30 29 27 29 29
39 38 37 37 36 37 36 34 34 32 32 31 32 36 35 34 30 28 27 26 26 28
38 37 36 35 37 37 36 31 30 30 31 30 32 34 34 31 26 25 26 26 26 26
37 36 35 34 33 33 31 30 30 31 29 27 27 33 33 30 24 25 24 27 27 27
36 35 34 33 32 34 33 32 31 30 28 30 25 30 31 30 21 16 23 24 26 28
34 33 33 32 32 30 28 28 25 26 26 27 27 25 30 30 21 22 23 23 24 26

GFSNIL_sfc_temp_030.txt.gz
Temp
48 45 45 45 43 42 41 41 42 41 41 41 41 40 40 38 37 36 35 34 33 33
46 44 43 43 42 41 41 43 41 40 40 40 41 42 41 39 36 35 35 34 33 33
44 43 43 42 41 41 40 40 40 40 42 42 40 40 40 38 38 35 35 35 33 32
42 42 42 41 41 40 39 40 40 40 40 38 38 40 37 37 36 34 33 33 32 31
42 42 41 40 40 39 38 39 39 39 38 38 40 39 36 36 35 33 32 32 31 31
41 40 39 38 38 39 38 38 37 38 39 40 38 37 38 35 33 32 31 31 30 30
39 38 38 38 38 38 38 36 36 40 38 38 38 39 36 33 32 31 31 31 30 30
39 39 38 37 36 36 36 37 39 39 37 34 35 35 32 32 31 29 29 30 30 31
39 38 37 36 35 35 36 37 36 34 32 31 35 36 36 33 29 29 28 27 28 28
38 37 36 35 34 35 34 31 31 31 31 29 30 35 35 33 29 27 26 26 26 27
36 35 34 34 37 33 34 35 29 29 29 29 31 33 33 32 26 25 25 26 26 26
35 34 33 33 32 32 32 31 30 30 29 27 27 32 32 30 25 24 24 27 27 27
34 33 31 31 30 31 31 30 30 30 28 30 25 29 31 30 22 16 23 25 26 27
33 31 31 29 30 30 28 28 25 26 26 27 27 25 30 31 22 22 24 23 24 25

GFSNIL_sfc_temp_033.txt.gz
Temp
59 59 57 55 55 55 55 54 53 52 52 51 51 51 50 50 49 48 47 46 46 45
56 55 55 55 54 53 53 54 53 52 51 51 51 51 50 49 48 48 47 46 45 45
55 54 54 53 52 52 53 53 52 52 52 51 50 49 47 45 47 46 46 45 44 44
53 53 52 52 52 52 51 52 50 50 49 48 46 45 46 46 45 44 44 44 42 42
52 52 52 51 51 50 49 49 48 48 47 46 44 43 44 44 44 43 41 41 41 41
51 50 49 49 49 48 47 47 46 46 45 44 43 43 44 44 41 41 40 40 39 39
49 48 48 48 47 46 45 45 45 45 43 40 43 43 43 41 41 40 40 39 38 37
48 48 47 46 45 44 43 44 43 42 42 42 42 42 41 40 39 38 37 37 37 36
47 46 45 45 43 43 43 42 42 41 40 40 41 36 36 36 38 37 36 34 35 35
45 45 44 44 43 43 42 41 39 40 40 39 39 35 35 33 37 35 34 33 33 33
44 43 43 43 42 42 42 41 40 38 38 38 37 33 33 32 35 34 33 33 33 32
43 42 41 41 40 41 41 39 37 39 37 36 36 32 32 33 33 32 32 32 33 32
43 41 40 40 39 40 41 39 39 37 36 33 34 30 31 32 32 29 30 32 32 30
42 40 40 39 40 39 39 37 35 33 34 34 33 33 30 31 31 30 29 29 29 30

GFSNIL_sfc_temp_036.txt.gz
Temp
66 69 68 65 64 63 62 62 61 60 60 60 59 59 57 56 55 54 52 49 48 48
66 64 63 62 62 62 61 61 60 59 59 59 58 58 57 54 53 54 53 49 48 48
64 63 62 62 60 59 59 59 58 57 57 56 56 56 55 53 51 52 51 49 48 48
62 62 62 61 59 58 58 57 56 55 54 54 54 53 48 45 46 49 48 47 47 47
62 61 60 59 58 57 55 55 54 53 53 53 49 49 50 48 47 46 45 47 47 47
60 60 58 56 56 55 54 53 53 52 48 47 47 47 46 46 47 47 47 47 45 45
58 57 57 55 54 53 52 51 51 51 48 46 48 48 48 47 47 47 46 45 44 43
57 55 54 53 52 52 50 51 51 48 47 48 48 48 45 46 46 45 44 44 43 43
53 53 52 51 50 50 50 50 49 48 47 46 48 35 36 36 43 44 42 42 42 42
52 51 51 51 50 50 49 49 46 46 47 45 45 35 34 34 42 42 41 40 40 40
51 50 50 50 49 49 48 47 45 43 45 45 44 34 33 33 41 41 40 40 39 39
51 50 49 48 47 47 47 47 44 44 44 43 43 33 33 33 39 38 38 39 39 37
50 49 48 47 46 47 47 45 42 43 44 40 40 33 32 33 37 33 36 38 38 34
50 48 47 47 47 47 46 44 42 39 41 41 40 39 31 31 33 34 34 34 35 36

GFSNIL_sfc_temp_039.txt.gz
Temp
69 68 68 68 66 65 64 64 63 62 61 60 60 60 59 59 58 56 52 51 52 52
64 67 67 65 65 64 63 63 62 60 59 59 58 58 57 57 57 54 53 51 51 51
64 66 65 64 62 61 61 61 59 58 58 57 57 57 56 54 53 52 50 50 49 49
65 64 64 63 62 61 60 59 58 57 56 56 56 54 51 51 52 49 49 48 49 47
64 64 62 62 61 60 58 58 57 56 55 54 52 52 49 47 46 47 45 48 48 48
64 62 62 61 59 59 57 56 55 55 53 52 49 48 48 49 48 47 48 48 47 46
62 61 60 59 58 57 56 54 54 54 53 50 49 50 50 50 48 47 48 48 46 45
62 60 59 57 56 55 54 54 54 53 51 49 50 50 46 47 46 46 46 46 46 45
59 58 56 55 54 53 53 53 54 52 49 47 50 35 36 37 43 44 44 43 44 44
57 55 55 55 54 53 52 52 50 48 46 46 47 36 35 35 41 43 43 43 42 42
55 54 54 53 52 52 51 49 50 47 44 45 46 36 35 34 39 43 43 42 42 41
55 53 53 52 51 51 50 49 48 47 44 44 44 35 34 34 39 40 40 41 41 40
54 52 51 51 50 50 50 48 48 45 45 42 43 35 34 34 37 35 37 39 40 35
53 52 51 50 49 49 48 47 43 40 41 42 41 40 34 33 34 35 35 35 37 38

GFSNIL_sfc_temp_042.txt.gz
Temp
64 61 61 61 60 57 56 54 55 54 53 52 52 50 49 48 47 47 45 44 44 45
62 61 59 58 59 56 55 58 53 52 51 51 50 50 49 47 46 45 44 42 42 42
61 59 59 59 57 56 54 54 52 51 50 50 50 49 46 45 45 44 42 43 43 43
58 58 59 58 56 55 54 53 52 51 50 50 49 47 45 44 44 43 42 42 42 42
58 59 58 57 56 54 52 52 52 51 50 50 47 46 44 43 43 41 40 41 41 42
58 58 58 56 55 54 52 51 50 50 49 48 46 45 44 43 43 42 42 42 41 39
58 58 56 55 54 52 52 50 49 49 49 48 46 47 47 47 43 41 41 40 40 39
58 57 56 54 52 52 50 50 50 49 48 46 46 48 42 41 39 38 38 38 41 39
57 56 53 51 51 50 49 49 49 47 46 44 48 36 37 37 35 37 37 35 36 37
56 54 52 52 51 49 48 47 45 45 45 42 42 37 37 35 34 34 34 34 34 36
54 52 51 51 50 48 47 45 44 43 43 41 43 37 36 35 32 33 34 35 34 33
52 51 50 49 47 47 45 44 43 44 42 40 38 36 35 33 32 32 32 35 34 35
51 50 48 47 46 46 45 45 43 41 40 40 36 36 35 34 29 29 29 31 33 32
51 49 48 46 45 44 43 41 38 36 36 36 36 36 36 35 30 28 28 28 28 29

GFSNIL_sfc_temp_045.txt.gz
Temp
57 54 54 55 54 53 52 52 50 49 48 48 48 46 45 44 42 42 40 40 41 41
55 54 53 54 55 53 53 54 51 50 47 47 47 46 43 41 41 40 39 39 38 38
54 54 55 53 54 53 52 52 50 48 47 46 45 44 42 40 41 40 38 39 38 38
52 55 56 55 53 52 51 51 49 48 47 46 44 43 41 40 41 40 38 39 39 38
56 56 56 54 51 52 50 49 48 48 47 47 44 42 42 41 40 39 38 39 38 38
55 55 54 54 52 49 48 47 47 48 46 45 43 43 42 41 40 40 39 38 37 36
54 54 54 52 50 48 47 47 48 47 46 45 44 45 45 43 39 38 37 37 36 35
54 53 51 50 49 48 47 49 48 46 45 44 44 45 40 40 37 36 35 35 36 36
52 51 50 49 48 48 47 47 46 45 44 43 45 38 39 37 34 35 34 32 33 33
52 51 49 49 49 47 45 44 43 43 43 41 39 38 38 37 33 32 31 30 31 33
49 49 49 47 47 45 44 43 42 41 41 40 41 37 37 35 32 32 31 31 31 30
47 46 47 45 43 43 43 42 41 41 40 38 36 37 36 34 31 31 30 32 32 31
47 46 44 43 42 42 42 42 40 39 38 38 33 36 36 34 29 28 28 29 30 33
46 45 44 42 42 42 40 38 35 34 34 35 34 32 36 36 29 28 27 27 26 27

GFSNIL_sfc_temp_048.txt.gz
Temp
55 54 52 54 54 53 51 49 50 48 49 48 46 43 42 40 40 39 38 38 37 38
53 53 51 54 54 52 51 50 47 47 48 46 43 43 41 39 39 38 37 37 37 36
55 55 55 54 52 51 51 50 49 48 48 45 43 44 41 40 39 38 37 38 36 36
53 54 54 53 52 50 50 49 49 47 46 45 43 43 42 40 39 38 37 37 36 37
55 55 53 52 51 51 50 49 48 47 46 46 43 42 41 41 40 38 37 38 38 38
54 54 52 51 51 50 48 47 46 46 45 45 43 41 41 40 40 38 38 37 36 35
53 53 52 51 47 46 45 45 44 45 45 44 43 43 44 43 40 38 37 38 36 36
52 51 50 48 46 45 46 45 45 46 44 44 44 45 42 40 37 36 36 36 36 35
50 50 47 46 45 46 46 45 46 45 44 42 44 41 39 38 35 36 34 32 33 33
49 48 47 47 47 46 45 44 43 41 41 41 40 39 39 38 34 33 32 31 31 32
47 46 46 46 45 43 43 42 41 40 40 39 40 38 38 37 32 31 31 32 32 29
44 45 45 42 41 42 40 40 40 40 38 37 36 38 37 35 30 29 31 33 32 30
45 42 41 41 40 40 40 39 38 37 36 37 34 37 37 35 27 27 29 30 30 33
43 42 41 39 39 38 37 36 33 33 33 33 33 32 37 36 29 29 29 28 28 28

GFSNIL_sfc_temp_051.txt.gz
Temp
54 54 52 51 50 49 49 48 47 47 47 48 47 46 43 40 38 38 37 37 36 36
53 51 50 50 51 49 49 49 47 47 46 46 46 44 40 38 38 37 36 36 35 35
52 52 54 53 50 49 47 44 46 46 46 46 44 43 40 38 38 38 37 37 37 36
53 53 53 50 50 48 46 47 46 47 46 45 43 41 39 39 39 39 38 37 36 36
54 52 50 50 49 48 46 48 48 47 46 45 42 41 41 41 39 37 36 36 36 36
51 50 49 48 48 47 46 47 46 46 45 43 42 41 40 39 39 37 37 37 36 36
51 49 49 48 48 45 44 45 45 44 44 44 43 41 41 41 39 38 37 36 35 35
51 50 49 47 44 44 45 46 46 45 44 43 42 42 40 40 37 35 34 34 35 34
48 48 47 46 45 45 45 46 45 44 43 41 43 41 40 38 34 35 33 32 32 32
48 46 45 45 45 45 44 43 42 41 41 40 39 39 40 38 33 32 31 30 30 32
45 44 45 46 44 42 41 40 40 39 38 37 38 39 39 38 32 30 30 30 32 33
45 44 44 42 40 40 39 38 37 37 36 34 34 38 38 36 30 29 29 31 31 31
45 43 41 39 39 38 37 36 35 35 34 35 33 37 38 36 28 27 29 29 30 34
43 41 41 38 36 35 34 33 31 32 32 32 32 33 37 37 29 29 29 29 29 29

GFSNIL_sfc_temp_054.txt.gz
Temp
56 54 52 51 50 48 47 45 47 44 45 46 47 46 45 43 42 41 38 36 36 38
54 52 51 49 48 47 46 48 44 46 46 45 44 45 44 42 41 39 37 37 38 36
53 52 50 49 47 48 47 45 45 43 44 44 45 44 43 41 40 37 37 37 36 35
50 50 50 50 48 47 46 46 45 45 44 45 44 43 41 40 39 37 37 37 36 35
50 50 50 47 48 47 47 47 46 46 45 45 44 42 41 39 40 38 37 37 36 35
49 49 48 48 47 48 47 46 45 45 45 44 43 41 41 41 39 37 36 36 35 34
50 49 47 49 48 47 45 44 44 44 45 44 44 43 41 40 38 37 36 35 34 34
49 50 49 47 45 44 43 42 46 45 44 44 43 42 39 38 36 35 34 34 34 33
48 47 46 45 43 43 44 45 45 43 43 41 43 41 40 38 35 34 33 32 32 32
47 45 44 45 45 44 43 42 41 40 40 39 38 39 40 39 34 33 32 32 32 32
45 45 45 45 43 42 41 40 39 38 37 36 37 38 39 38 34 32 32 31 31 30
45 44 43 42 41 41 39 38 36 36 35 34 34 37 37 36 32 31 31 32 31 31
43 42 41 40 39 38 36 35 34 33 33 34 32 36 37 36 30 29 31 30 30 34
42 41 40 38 36 34 32 31 31 31 31 32 32 33 36 37 31 31 30 30 29 30

GFSNIL_sfc_temp_057.txt.gz
Temp
59 61 61 58 55 56 57 59 57 55 55 54 53 48 44 44 44 45 50 49 49 51
58 59 58 55 55 59 59 56 52 52 53 52 50 46 44 45 44 45 48 49 49 49
59 60 59 57 58 56 55 53 50 52 52 48 46 49 49 46 44 44 49 50 48 48
60 60 57 56 54 53 49 49 50 49 47 48 46 46 44 44 44 47 48 48 48 47
59 56 55 52 50 48 47 49 50 49 46 45 43 44 43 45 48 48 47 48 47 46
54 53 52 50 48 48 48 48 48 45 44 47 46 46 49 50 48 48 48 48 47 47
52 51 50 49 48 48 50 47 45 45 44 44 45 47 50 49 49 48 48 47 47 47
51 50 49 49 49 46 46 45 44 44 44 46 47 48 47 50 49 48 47 47 46 46
50 49 47 46 44 44 44 44 45 45 44 44 45 42 41 43 48 48 46 46 47 46
46 46 45 44 45 43 43 45 44 42 41 41 45 41 40 39 48 47 47 47 46 46
46 45 47 45 44 44 43 42 43 42 45 46 46 39 38 38 46 46 46 46 45 45
45 44 45 43 42 42 42 43 45 45 45 44 45 39 37 38 45 44 44 45 44 44
46 43 42 42 43 46 46 44 44 44 44 41 42 40 37 39 42 40 41 44 43 37
44 45 45 45 45 44 44 42 41 40 41 42 41 42 38 37 39 40 40 41 41 42

GFSNIL_sfc_temp_060.txt.gz
Temp
71 69 65 64 65 67 60 56 57 58 64 66 63 55 55 48 55 54 48 51 49 52
67 66 62 64 64 63 58 56 58 63 63 54 53 57 49 48 50 48 48 48 50 53
65 65 65 63 64 61 56 59 61 59 51 54 52 51 48 46 46 46 46 49 53 55
64 65 64 62 60 58 57 58 58 52 51 48 48 47 46 47 44 43 49 54 54 54
64 63 62 60 58 56 54 51 50 48 48 48 46 45 43 43 45 50 53 54 54 53
60 58 56 53 50 48 47 46 46 48 46 44 45 44 44 45 51 54 54 55 54 53
53 52 50 49 48 47 49 48 49 46 46 44 43 44 46 51 53 54 55 54 53 53
52 51 49 48 48 49 49 47 48 45 44 44 45 46 48 51 52 53 54 54 54 54
51 50 49 50 50 52 50 49 46 44 43 44 45 42 41 43 51 53 53 52 54 55
55 54 54 53 50 46 46 45 43 43 44 44 45 41 41 40 50 52 53 53 53 53
53 51 50 50 48 46 45 45 45 46 44 47 53 41 40 38 49 51 52 52 52 52
54 51 49 47 45 45 45 45 45 52 51 51 52 41 39 40 48 49 49 51 52 52
54 52 47 45 46 52 54 53 53 50 51 46 49 43 39 41 45 44 46 48 49 43
50 51 52 52 52 52 52 50 47 46 48 48 47 47 39 38 41 41 41 42 44 47

GFSNIL_sfc_temp_063.txt.gz
Temp
76 76 76 67 62 65 65 66 67 66 62 56 56 57 59 58 50 53 49 47 48 50
76 74 74 71 70 63 66 63 60 58 56 54 54 54 53 48 49 47 45 46 48 48
71 69 70 68 67 65 66 62 58 55 54 51 52 49 50 48 45 44 46 46 46 50
68 66 64 65 63 64 64 63 58 56 51 49 47 49 49 47 44 43 43 45 49 53
67 64 62 61 61 61 57 54 53 51 48 48 48 46 45 43 44 43 44 47 52 53
62 61 55 52 52 50 49 48 47 48 47 47 45 44 44 44 44 45 48 51 54 54
54 52 50 49 48 47 48 48 48 47 45 45 44 44 45 45 46 49 50 53 54 54
51 51 50 49 48 48 48 48 47 45 45 45 45 45 45 46 46 48 49 52 54 55
51 50 49 49 48 47 47 47 47 46 44 43 45 41 40 42 45 47 50 52 54 56
54 53 53 53 51 50 49 47 44 43 43 44 47 41 41 40 49 51 52 52 53 54
57 56 56 55 53 50 47 45 46 46 47 49 51 43 40 39 49 50 51 52 53 53
56 54 54 51 49 50 47 48 49 51 53 53 54 43 40 41 48 48 48 51 51 51
56 54 52 50 50 50 54 54 56 54 53 45 51 38 39 41 44 42 43 45 46 42
53 52 55 55 55 54 54 53 50 48 49 49 47 46 39 38 40 39 36 38 40 43

GFSNIL_sfc_temp_066.txt.gz
Temp
72 71 70 69 65 64 63 61 61 61 60 59 56 54 53 50 47 47 48 47 46 46
72 71 70 69 65 62 62 62 61 60 57 54 54 53 49 47 46 46 45 45 45 45
71 70 70 66 64 63 61 59 57 55 54 53 50 48 47 47 45 44 44 44 44 44
70 66 63 61 61 61 60 59 57 55 51 49 47 47 46 45 43 42 43 43 43 44
65 62 61 59 58 58 55 55 53 51 49 48 47 47 44 43 44 43 42 43 43 45
61 59 54 52 51 50 50 49 48 48 47 46 45 44 44 44 44 44 44 45 46 47
52 50 49 49 49 48 48 48 47 47 45 44 44 44 45 45 44 45 46 47 47 49
50 49 48 47 48 47 47 47 46 45 45 44 44 45 44 45 45 45 45 46 49 48
49 49 47 48 46 46 45 45 45 44 44 43 45 41 41 42 44 45 45 43 46 47
50 49 48 48 47 46 45 45 44 43 43 43 44 40 41 39 43 43 43 42 43 46
52 51 51 51 50 47 45 43 43 43 44 45 48 42 41 39 40 41 42 43 43 42
54 53 52 48 46 46 45 45 45 46 46 46 43 39 38 39 39 40 38 43 41 41
54 52 49 48 47 47 48 48 49 49 46 44 38 38 37 39 33 32 31 33 37 37
53 51 50 50 50 49 47 46 41 41 41 43 40 36 36 36 30 28 29 30 30 32

GFSNIL_sfc_temp_069.txt.gz
Temp
67 66 62 64 62 63 62 62 59 57 55 55 54 53 53 50 47 47 46 46 45 45
69 65 66 66 61 63 61 59 58 57 55 53 52 52 50 48 47 47 46 44 45 45
67 65 64 65 59 59 59 57 56 55 54 53 51 49 48 46 46 45 44 45 44 44
62 62 61 60 59 60 58 57 55 54 53 50 48 48 47 45 45 44 43 44 44 44
60 60 59 59 60 58 57 56 55 52 50 48 47 47 45 44 44 43 43 43 44 44
58 59 58 54 54 54 52 51 50 49 48 47 46 44 44 44 44 44 44 44 44 45
52 51 50 50 49 48 49 48 47 47 46 45 45 45 45 45 44 44 45 45 46 45
49 49 49 48 47 47 47 46 46 45 44 45 45 45 44 45 44 44 44 45 46 46
48 47 47 46 46 45 45 45 45 44 43 43 45 40 41 43 43 45 44 41 41 41
48 47 46 46 45 44 44 44 43 42 43 42 43 41 41 40 41 39 38 38 38 41
48 47 47 47 45 44 43 41 40 42 43 43 45 40 40 38 38 37 37 37 37 35
49 48 48 45 43 41 40 42 43 44 42 41 38 38 38 38 34 35 33 35 34 34
50 48 44 42 41 43 43 44 43 43 39 37 35 37 38 35 30 28 28 29 32 33
48 46 46 44 43 42 41 40 35 35 36 35 34 34 35 34 28 26 27 27 27 27

GFSNIL_sfc_temp_072.txt.gz
Temp
64 65 62 63 63 62 62 62 63 61 59 56 56 54 53 53 50 49 49 48 47 47
64 64 64 63 61 61 60 61 58 58 57 56 55 54 52 50 48 48 47 47 46 46
66 63 64 60 57 58 57 56 57 55 54 54 53 52 51 48 47 47 46 46 45 45
66 66 62 59 58 58 58 58 58 56 54 54 53 51 49 47 46 46 45 45 45 45
60 60 60 60 59 59 58 57 56 55 54 52 50 49 47 45 45 44 44 44 44 44
59 60 59 59 58 57 56 56 53 52 50 49 48 46 45 45 45 45 45 45 44 44
55 56 57 56 54 54 54 51 50 50 49 47 45 45 45 46 45 45 45 45 45 45
50 50 49 49 49 49 48 48 48 46 45 45 45 45 45 45 44 44 44 45 46 45
48 48 48 47 46 46 45 45 45 44 44 43 45 40 41 43 44 44 44 42 42 39
48 47 46 46 45 44 44 44 43 43 43 43 43 41 41 40 43 41 39 35 35 38
48 46 46 46 45 44 43 42 42 42 43 43 44 40 39 37 38 35 34 33 33 31
48 46 46 44 43 42 41 42 43 44 44 41 40 38 36 36 32 31 31 32 32 31
49 47 45 43 42 40 41 43 45 42 40 38 35 36 36 34 29 27 27 29 30 32
47 44 42 42 41 40 39 38 34 33 34 32 33 33 35 34 28 27 27 27 26 26

GFSNIL_sfc_temp_075.txt.gz
Temp
61 61 60 61 61 59 58 59 60 59 60 60 58 57 56 55 54 52 52 50 49 49
61 61 62 60 58 58 56 59 58 60 60 58 55 56 55 53 52 51 50 49 49 49
63 61 61 58 57 57 57 57 56 56 55 54 54 53 53 51 50 50 49 48 47 46
59 59 59 58 56 56 56 57 57 57 56 54 53 52 52 50 49 48 47 46 46 45
62 62 61 59 58 58 58 58 58 58 59 54 53 52 51 48 48 47 46 45 45 45
62 62 61 58 58 58 59 59 59 57 55 54 52 50 49 48 47 46 46 45 45 44
61 59 59 59 59 59 59 58 54 55 53 50 48 47 47 47 45 45 45 45 45 45
54 54 54 55 57 54 53 53 51 49 47 46 46 46 46 45 45 44 43 44 45 45
51 50 49 49 48 47 47 47 47 45 45 44 45 42 41 43 44 44 43 42 41 39
49 48 47 47 46 45 46 46 44 43 44 43 42 40 41 41 44 42 40 38 38 39
49 47 47 46 45 44 44 43 43 43 43 43 42 39 39 38 39 37 36 35 34 33
48 46 46 44 43 43 42 42 43 43 43 43 41 37 37 37 35 34 32 32 31 30
48 46 44 43 42 43 44 43 43 40 39 38 37 37 36 35 32 29 28 30 30 31
47 45 44 43 42 43 42 39 35 32 33 34 34 34 35 34 29 28 28 27 26 27

GFSNIL_sfc_temp_078.txt.gz
Temp
56 58 57 56 55 54 54 55 56 57 57 58 58 57 56 56 55 54 53 53 52 52
57 56 56 56 55 55 55 56 55 56 57 56 56 56 55 56 55 54 54 53 52 50
57 56 56 56 55 55 56 56 56 56 56 55 54 55 55 55 54 52 52 52 51 50
56 56 57 58 59 58 58 57 58 59 58 56 55 55 54 54 52 51 51 50 50 49
60 60 60 61 62 61 59 58 58 57 57 57 56 54 53 52 50 50 48 48 48 46
60 61 61 60 60 58 58 57 57 58 57 57 54 52 52 52 50 49 49 48 47 46
59 60 59 56 55 57 57 57 57 57 55 53 52 51 50 49 47 47 48 48 47 46
60 60 58 55 55 55 55 57 56 52 50 49 48 48 47 47 46 45 45 45 45 44
56 55 54 53 52 52 51 50 50 49 48 47 46 41 42 44 45 45 44 40 38 38
52 51 50 49 48 47 46 46 45 45 45 44 43 41 41 41 44 43 40 37 37 37
50 48 47 47 46 44 44 44 43 43 43 43 41 39 39 38 38 36 35 35 35 34
49 47 46 45 43 43 43 43 43 43 43 41 39 37 37 37 35 34 33 33 34 33
48 47 44 43 42 43 43 42 40 38 39 37 36 36 36 35 33 31 30 32 32 32
46 44 44 43 43 43 39 36 34 32 33 33 34 34 35 35 32 31 30 29 28 28

GFSNIL_sfc_temp_081.txt.gz
Temp
64 64 65 64 65 64 66 66 66 65 66 65 66 65 65 64 64 63 61 61 60 59
63 64 64 64 65 64 65 65 64 65 65 65 65 65 65 63 63 62 61 60 60 56
63 64 65 64 63 63 64 64 64 63 65 65 65 65 64 62 63 60 58 58 57 56
64 64 64 63 63 64 65 65 64 64 65 65 64 63 60 59 57 56 56 54 52 52
62 63 63 62 64 65 65 65 64 65 64 65 62 60 56 57 55 54 53 52 51 52
60 60 61 62 63 66 65 65 63 63 63 63 63 61 57 56 55 53 53 53 51 50
60 63 62 62 63 65 65 65 64 62 61 62 62 59 57 55 54 53 52 50 50 49
63 63 65 65 63 64 63 64 64 63 62 61 57 54 53 52 50 49 47 46 46 46
64 65 64 63 61 59 59 61 61 59 57 52 51 45 44 47 47 46 45 40 40 39
63 63 63 61 56 56 55 52 50 48 48 47 45 40 41 41 46 44 40 38 37 37
60 57 52 52 51 48 47 46 45 45 44 43 41 39 39 38 40 38 36 36 35 34
53 51 50 48 46 45 44 44 43 44 43 40 37 37 37 37 35 34 33 34 35 34
51 49 47 45 44 44 43 41 40 38 38 37 36 36 36 36 34 31 31 32 32 32
47 46 45 44 43 41 38 35 34 32 33 34 35 35 36 36 34 32 31 31 30 32

GFSNIL_sfc_temp_084.txt.gz
Temp
68 65 65 64 64 71 72 73 72 71 71 72 72 71 71 71 71 70 69 68 69 69
68 69 70 69 69 71 73 73 72 72 71 71 72 72 72 70 70 70 69 69 68 67
69 69 71 71 70 71 72 72 72 71 71 72 72 72 71 71 71 69 70 68 66 64
69 69 70 70 70 71 71 71 71 71 71 71 71 72 71 70 70 69 68 66 62 62
70 70 69 69 70 71 70 71 71 71 72 71 72 72 71 69 69 65 63 59 57 55
68 69 68 68 69 70 71 72 72 72 71 70 70 71 70 70 67 64 59 61 56 55
68 68 69 69 69 69 71 71 71 71 70 70 71 71 70 68 64 61 60 58 56 54
68 69 69 69 69 68 69 71 71 71 71 70 68 68 68 66 61 61 57 53 51 49
70 70 70 70 70 69 68 69 69 68 68 68 68 50 45 53 55 51 48 42 41 40
71 71 71 71 71 70 67 66 65 66 66 61 53 41 41 42 47 44 41 38 38 37
71 70 71 71 71 67 63 59 53 48 47 46 42 39 39 38 40 37 37 37 36 35
70 69 67 62 58 54 49 47 45 45 43 40 38 37 37 37 35 33 33 34 34 34
62 59 57 51 47 45 44 41 40 38 38 36 36 36 36 36 34 32 31 32 32 34
55 51 47 45 43 41 38 36 34 33 33 34 35 35 36 36 34 32 31 32 32 32

GFSNIL_sfc_temp_087.txt.gz
Temp
63 63 64 63 63 62 63 64 68 70 72 73 73 72 72 72 71 70 70 69 70 70
64 66 66 64 64 64 65 68 68 74 70 72 72 72 72 71 71 71 70 69 69 69
68 67 68 68 65 68 67 71 72 73 72 71 72 73 71 71 72 71 70 70 69 68
66 69 70 69 69 70 69 72 72 73 72 71 72 72 71 70 71 70 70 69 68 68
66 67 68 70 71 71 71 72 72 72 73 72 73 72 72 70 71 70 69 69 68 66
70 70 69 70 72 72 72 73 73 73 72 72 72 73 72 72 71 71 70 69 68 65
72 72 72 72 70 70 70 71 72 73 73 72 74 74 73 73 72 70 70 67 63 62
73 73 73 72 72 70 68 70 72 72 72 73 73 73 72 72 71 70 66 62 58 54
73 73 73 72 72 71 71 72 72 72 72 71 72 55 49 55 66 60 57 45 41 40
73 72 72 72 72 71 70 70 69 70 71 70 68 43 43 43 50 46 42 39 38 37
74 73 73 72 72 72 71 67 65 62 59 53 45 41 41 40 40 38 37 36 36 35
75 74 74 73 72 72 65 53 50 48 44 40 38 37 37 38 36 34 33 34 34 34
75 74 72 71 58 54 50 43 40 38 38 36 36 36 37 37 35 32 31 32 31 32
73 69 56 50 47 43 39 37 36 34 34 34 35 35 36 36 34 32 31 30 30 31

GFSNIL_sfc_temp_090.txt.gz
Temp
61 59 60 61 62 62 62 63 63 63 64 65 66 64 64 62 62 62 61 61 60 61
61 61 62 62 63 62 62 63 62 63 63 63 64 64 63 63 62 62 62 62 61 61
62 62 63 63 62 62 63 63 63 63 63 64 65 65 64 63 63 63 63 63 62 61
63 62 63 63 63 63 63 63 63 64 64 65 65 64 64 64 63 63 63 62 62 61
63 64 63 63 63 64 63 64 64 65 66 67 66 65 64 63 64 63 61 62 60 61
63 64 63 64 64 65 65 64 65 66 66 67 66 66 65 65 64 63 63 62 61 62
63 64 65 65 66 66 66 66 65 66 67 67 67 67 66 66 64 63 63 63 62 61
65 65 65 66 66 66 66 67 67 66 67 67 67 67 65 65 64 63 61 60 58 49
68 67 66 66 66 66 65 66 66 66 66 65 67 55 51 57 60 59 56 47 41 40
70 68 67 68 67 66 64 64 64 64 64 64 63 43 43 42 51 47 43 40 38 37
70 68 68 68 67 66 65 63 63 63 62 50 43 39 39 39 40 37 37 37 36 35
70 69 67 66 65 64 63 62 54 48 45 40 38 38 38 38 36 34 34 35 35 34
71 69 66 65 62 52 47 42 40 37 37 36 36 37 38 37 34 32 31 31 32 33
60 58 52 47 45 42 39 36 34 33 33 34 34 35 36 36 34 32 31 30 29 30

GFSNIL_sfc_temp_093.txt.gz
Temp
60 59 59 59 59 60 60 60 60 59 61 62 61 61 60 61 61 59 59 58 59 59
60 60 59 59 59 60 61 62 58 59 60 60 62 62 61 60 60 60 60 60 59 57
60 61 60 61 59 61 61 63 59 60 59 60 61 61 61 60 60 59 58 60 58 58
60 61 61 61 61 61 60 61 61 60 60 60 61 62 60 59 59 59 59 58 57 59
61 61 60 61 61 61 60 60 62 62 62 61 62 63 62 60 61 59 59 58 56 58
61 60 60 59 61 62 61 60 61 63 61 62 62 63 62 61 60 59 59 59 57 59
61 61 61 60 60 60 61 61 60 62 61 62 63 63 62 62 61 60 60 59 58 59
63 63 63 62 61 61 60 61 61 61 61 62 62 64 61 62 60 59 58 58 53 46
61 62 61 61 61 61 61 61 62 61 61 61 63 55 51 57 60 57 57 47 41 40
62 61 61 62 61 60 60 62 62 62 62 60 61 49 49 47 56 52 47 43 39 38
63 62 62 62 61 61 61 60 60 61 62 56 43 40 40 40 42 39 39 38 37 35
65 64 63 62 61 61 60 60 55 48 44 41 38 38 38 40 39 36 35 35 35 34
63 64 62 61 57 47 48 41 39 37 37 37 36 37 37 37 35 32 31 32 32 33
60 61 57 48 45 42 39 36 34 33 33 34 35 35 36 36 34 32 30 30 30 30

GFSNIL_sfc_temp_096.txt.gz
Temp
55 56 57 57 57 57 57 56 56 57 57 57 59 59 58 59 59 58 58 57 57 57
56 57 58 58 59 58 58 59 59 59 58 59 58 59 60 59 58 58 58 58 58 57
57 58 59 59 56 58 58 60 57 58 58 59 59 60 61 59 58 58 58 58 57 57
59 59 59 59 59 58 59 59 58 59 58 59 60 60 59 60 60 58 57 57 57 58
60 60 59 59 59 60 59 59 60 59 59 58 59 58 58 59 60 59 57 58 57 57
59 59 59 59 60 60 59 58 59 60 59 59 59 58 59 61 60 59 59 59 57 58
59 60 59 60 60 60 59 58 58 59 59 60 60 61 60 60 59 59 60 59 58 58
61 61 61 60 60 60 59 58 59 59 59 59 60 61 60 61 60 60 59 57 56 55
61 61 60 60 59 59 58 59 58 58 58 57 60 52 48 54 57 56 56 55 43 41
60 60 61 61 60 59 59 59 57 57 57 57 58 48 48 46 58 56 55 49 42 39
59 59 60 60 61 60 60 59 58 57 58 58 57 46 46 44 50 41 40 41 40 38
59 59 59 58 59 60 59 59 59 59 58 58 42 39 40 42 38 35 34 35 36 35
61 60 59 59 58 58 58 55 46 42 40 39 38 38 39 40 35 33 32 32 32 33
50 54 57 58 52 45 42 41 39 37 36 35 35 36 37 38 36 33 31 31 30 31

GFSNIL_sfc_temp_099.txt.gz
Temp
55 56 56 56 56 56 56 56 56 57 57 57 57 58 57 57 57 57 56 57 57 57
54 55 56 55 57 57 56 56 56 57 57 58 57 57 56 55 56 58 57 57 56 56
54 55 56 58 56 56 57 56 55 56 57 57 57 57 56 56 57 57 57 57 57 55
54 55 55 56 57 56 57 57 57 57 57 57 57 57 57 58 58 57 57 56 56 56
55 55 55 55 56 58 56 56 58 57 57 57 56 57 57 57 59 57 56 57 55 56
55 55 55 55 57 58 58 57 57 58 57 57 57 57 58 58 59 58 58 59 57 57
55 56 56 58 58 58 59 57 56 58 58 57 57 58 58 58 58 58 59 60 59 58
57 57 57 58 58 58 58 58 57 57 57 58 58 58 57 57 57 55 55 55 57 57
58 58 57 57 58 58 58 58 57 57 57 55 58 50 48 53 56 54 54 54 53 45
58 57 59 59 58 58 57 57 56 56 56 56 56 47 46 45 56 55 55 55 50 42
58 57 58 59 59 58 58 57 57 55 55 55 55 46 45 44 51 52 47 49 48 44
58 58 58 57 58 58 57 57 57 57 56 54 54 44 44 44 47 39 36 37 38 38
52 58 58 58 57 58 58 57 56 54 46 49 54 39 41 44 41 35 33 33 33 35
43 46 49 57 57 57 56 44 41 36 35 36 37 37 38 39 39 35 32 31 31 32

GFSNIL_sfc_temp_102.txt.gz
Temp
53 54 54 55 56 56 56 56 57 58 57 57 58 58 57 57 56 56 56 56 56 56
53 54 54 54 55 56 57 56 56 57 57 57 57 57 57 57 57 56 55 56 56 57
53 53 53 53 53 56 56 56 56 56 56 56 57 57 57 56 57 55 55 56 56 56
52 52 53 53 54 55 56 56 56 57 57 56 56 57 57 57 56 55 55 57 57 56
52 53 52 53 54 56 54 56 56 56 57 57 57 57 57 56 57 56 56 56 56 57
52 52 52 53 53 55 54 54 56 57 56 56 56 56 57 57 57 57 57 56 56 57
52 53 53 53 53 54 55 56 54 56 56 56 56 56 56 57 57 56 58 57 56 57
53 54 53 53 53 53 54 55 56 55 55 55 55 56 56 57 57 57 57 58 57 56
56 54 53 53 53 54 55 56 56 56 55 53 56 48 46 52 55 55 55 55 55 55
57 56 54 54 55 56 56 56 56 56 56 56 56 46 46 45 54 53 53 54 52 47
57 57 57 56 56 57 57 56 55 55 55 55 55 45 45 43 52 51 51 52 52 49
55 57 57 56 56 56 56 55 55 55 54 53 54 44 44 43 50 49 44 42 43 46
47 49 52 56 56 57 56 55 54 54 51 48 52 44 43 44 51 44 35 34 34 36
39 41 42 45 52 55 55 49 41 35 34 34 35 36 37 39 48 41 33 32 32 33

GFSNIL_sfc_temp_105.txt.gz
Temp
62 63 64 62 60 60 63 60 63 60 58 58 57 58 58 58 58 59 60 61 62 63
62 63 63 62 59 59 61 61 62 60 58 58 58 57 57 57 57 57 58 58 59 61
60 62 63 62 58 60 62 61 61 58 58 57 58 57 57 56 57 57 56 56 55 57
58 61 61 60 60 61 61 60 59 58 57 57 57 56 55 55 56 56 56 56 55 56
58 60 60 60 60 61 59 59 59 58 57 57 57 57 56 55 56 56 55 55 56 57
56 58 59 59 60 61 61 57 59 58 57 57 57 57 57 57 57 57 57 56 56 57
55 58 59 60 60 60 61 60 58 58 57 57 57 57 58 58 57 58 58 57 57 58
56 57 59 59 60 60 60 61 61 59 59 58 57 57 56 57 57 56 56 56 57 58
56 57 58 59 59 59 60 61 60 59 59 59 60 47 46 53 56 56 55 55 56 57
56 56 57 59 59 59 59 60 60 59 58 57 59 45 45 45 62 58 56 57 56 56
57 56 57 58 58 58 59 57 58 58 57 56 56 44 44 43 60 61 61 61 61 60
50 54 57 55 56 58 58 57 56 57 56 55 55 44 43 44 53 55 55 57 60 60
43 45 45 46 53 56 57 56 56 47 39 37 45 37 40 44 51 48 44 36 35 35
39 40 40 42 42 43 52 40 36 34 34 34 35 37 38 39 46 38 33 33 32 33

GFSNIL_sfc_temp_108.txt.gz
Temp
70 74 74 72 70 67 66 68 61 60 62 60 60 60 60 59 59 59 59 59 61 64
67 72 72 72 70 68 68 67 66 60 59 59 59 59 57 57 57 58 59 59 61 64
67 71 72 71 64 66 65 67 65 63 60 59 57 58 57 57 58 57 58 59 59 58
67 70 70 68 64 63 66 67 66 66 60 58 57 57 57 56 56 56 57 57 57 57
65 68 66 65 63 63 64 66 66 63 59 57 57 57 56 56 56 56 56 57 56 55
60 64 63 64 64 64 64 66 65 64 59 57 57 56 56 56 56 56 57 57 57 57
58 62 63 64 63 64 63 63 62 62 63 61 59 59 58 57 56 55 56 57 57 57
58 62 64 64 63 64 63 62 64 62 62 61 60 59 58 57 57 56 57 57 57 58
58 60 61 63 63 62 62 63 62 60 59 59 60 46 46 53 56 57 57 57 57 57
60 59 60 62 62 61 61 63 62 63 61 59 59 44 45 45 59 55 56 57 56 54
57 59 61 61 61 62 63 62 63 62 61 61 60 43 44 43 59 55 56 56 55 55
49 52 56 57 59 61 61 62 63 63 61 59 57 41 42 43 55 60 59 61 61 60
44 45 44 45 47 54 58 57 55 43 41 39 45 37 40 43 51 50 45 39 39 36
39 40 40 41 41 43 45 39 35 34 34 35 35 37 38 39 49 40 34 33 33 33

GFSNIL_sfc_temp_111.txt.gz
Temp
68 70 74 75 75 72 71 70 64 62 62 61 62 62 60 59 59 59 58 58 58 58
68 68 72 75 77 74 72 72 68 64 64 63 61 62 60 59 58 58 59 59 59 58
65 70 72 75 73 73 71 70 64 61 61 60 59 59 59 59 59 58 59 58 58 58
63 68 70 72 72 71 69 69 68 66 62 60 58 58 57 57 57 57 57 58 57 57
62 65 69 70 69 69 68 70 70 67 62 60 58 58 56 55 56 56 55 56 57 57
60 63 66 67 67 66 68 67 68 65 63 60 58 57 57 57 56 56 57 56 56 56
60 63 64 66 66 63 67 66 66 64 63 59 58 57 56 56 55 55 56 56 56 55
59 62 64 64 64 63 65 66 65 63 63 62 60 59 57 57 56 55 55 55 55 56
57 60 64 63 62 61 63 66 64 62 61 61 63 46 46 54 56 56 55 53 54 56
57 59 61 61 62 62 61 62 64 65 64 63 64 45 44 45 59 56 56 56 55 55
57 59 60 61 61 61 63 61 61 60 61 63 62 43 43 43 59 57 58 57 59 57
49 54 60 59 61 62 61 61 60 61 61 61 52 39 41 45 57 55 55 56 57 57
42 44 45 46 49 52 60 57 47 42 40 37 45 37 38 44 53 48 41 37 35 35
37 39 40 41 42 43 40 37 35 34 33 34 35 36 37 39 50 42 35 34 33 34

GFSNIL_sfc_temp_114.txt.gz
Temp
69 68 69 70 71 67 66 65 66 65 64 62 62 60 60 59 58 58 58 58 58 58
66 66 68 70 69 69 68 68 66 64 62 62 62 60 59 58 58 58 58 58 58 58
66 67 67 68 67 68 68 67 63 62 61 60 60 60 59 58 58 57 58 58 58 58
65 66 66 66 66 67 67 66 64 62 61 60 59 59 58 58 57 57 57 58 57 57
63 64 65 64 65 65 66 66 64 62 60 59 58 58 57 56 57 57 56 57 57 56
60 62 61 62 64 65 65 65 65 63 61 59 58 57 57 57 56 56 57 57 56 57
58 60 61 61 63 64 64 65 65 62 60 58 57 57 56 56 55 56 56 56 57 57
59 60 61 60 62 63 62 63 63 62 60 59 58 57 56 56 55 55 54 55 55 56
58 58 58 59 60 61 60 61 62 62 59 58 59 46 46 52 55 54 54 53 53 53
57 57 58 59 59 59 59 60 60 60 60 58 59 45 45 46 56 54 53 53 53 52
56 56 58 58 58 58 59 58 59 59 59 58 53 42 43 43 56 54 54 54 54 53
44 55 56 57 57 58 58 57 55 52 49 48 41 38 40 45 53 53 52 51 44 51
39 43 47 49 51 51 52 46 41 37 37 36 39 37 39 43 52 44 38 36 36 35
35 37 39 40 42 42 39 36 33 32 32 33 34 35 38 40 47 38 34 33 33 33

GFSNIL_sfc_temp_117.txt.gz
Temp
62 64 64 65 65 64 65 65 66 64 63 62 61 61 60 59 59 59 58 58 58 58
59 62 64 65 66 64 67 67 64 63 62 61 61 60 60 59 58 58 58 58 58 58
56 58 64 63 62 63 66 66 64 63 62 61 60 60 59 58 58 57 57 58 58 58
50 56 63 61 61 63 65 65 63 62 61 60 59 59 58 58 58 57 57 57 57 57
50 61 61 61 61 64 65 63 62 60 60 59 59 59 58 57 57 56 56 56 57 57
49 59 60 60 60 63 63 62 62 60 60 59 58 58 58 58 57 57 57 57 56 57
47 58 59 60 59 62 63 61 60 60 60 58 57 57 57 57 56 56 57 57 58 57
48 57 59 59 59 61 62 62 60 60 59 58 57 57 56 56 55 55 55 56 56 57
50 57 58 58 59 59 59 61 59 58 57 56 58 47 46 52 55 54 54 53 53 54
43 57 58 59 59 58 58 59 58 57 57 56 57 44 45 45 55 54 53 53 52 51
40 46 57 58 58 57 58 57 57 56 57 55 49 43 43 43 54 53 53 53 53 52
38 40 54 56 56 57 57 56 52 52 49 46 41 39 42 46 53 51 49 47 44 52
36 37 39 51 55 55 49 43 41 36 36 37 38 37 40 47 50 41 37 35 35 35
34 36 35 39 45 43 38 35 33 32 32 33 34 36 40 42 45 38 34 33 32 33

GFSNIL_sfc_temp_120.txt.gz
Temp
54 54 57 61 62 62 63 65 64 63 63 63 62 61 61 60 60 59 59 59 59 58
50 51 54 56 63 63 64 64 65 65 63 62 61 61 60 59 59 58 58 59 58 58
49 50 51 53 57 63 63 63 63 63 63 62 61 60 60 59 59 58 58 58 57 58
46 48 51 51 54 62 63 63 63 63 62 61 60 60 59 58 58 57 57 57 57 57
45 47 49 52 57 62 62 62 63 64 62 61 60 59 58 57 58 57 56 56 56 56
44 45 47 49 60 61 61 61 63 62 60 59 59 58 58 58 57 57 57 57 56 57
42 45 46 50 57 60 61 61 61 61 60 59 59 59 58 57 57 56 57 57 57 57
42 44 46 50 56 59 60 61 61 60 59 59 58 58 57 57 56 56 56 56 56 57
41 43 45 47 57 58 59 61 60 58 57 57 57 46 47 53 56 55 55 54 55 56
39 40 43 44 57 58 58 58 58 58 57 56 56 45 45 45 55 54 54 53 53 52
37 38 41 43 50 58 57 57 57 56 56 56 51 43 43 43 54 53 53 53 53 52
34 36 39 39 41 58 57 56 56 55 54 50 44 41 42 47 52 51 48 47 44 51
33 34 35 37 38 56 53 45 42 38 39 39 40 39 41 48 48 41 37 35 36 35
32 32 34 36 36 41 39 37 35 33 33 34 35 37 40 43 45 38 34 33 32 33